logo
Search for airport 
image banner adimage banner adimage banner ad
image banner ad

LKPY - Praha 10 - Vinohrady

Located in Praha, Czech Republic

ICAO - , IATA -

Data provided by Airmate  

General information

Coordinates: N50°4'29" E14°28'55"
Elevation is 781 feet MSL.
 
View others Airports in Prague (capital city)

Operational data

Special qualification required
Current time UTC:
Current local time:
Weather at : LKKB - Kbely ( 7 km )
METAR: LKKB 200600Z 27010KT 9999 FEW012 BKN016 OVC030 05/03 Q1006 NOSIG
TAF: TAF LKKB 200500Z 2006/2106 23012KT 9999 BKN035 TEMPO 2006/2013 23015G28KT 6000 RA BKN010 OVC022 BECMG 2007/2009 33014KT PROB40 TEMPO 2013/2017 34016G26KT 5000 SHRA BKN015 BKN028TCU BECMG 2016/2018 32006KT CAVOK BECMG 2022/2100 VRB02KT
View NOTAMs / SUP AIP / TFR affecting this airport [VIEW]
Communications frequencies: [VIEW]

Runways:

Airport contact information

Address: Praha Czech Republic

Satellite view of LKPY